Flag for Jordan Weather past 2 weeks in Madaba, Jordan

Now
70 °F

Clear.


Feels Like: 70 °F
Forecast: 63 / 88 °F
Wind: 6 mph from West

Location: Queen Alia Airport

Current Time: Aug 29, 2014 at 9:28:17 AM

Latest Report: Aug 29, 2014 at 8:00 AM


Visibility: 4 mi

Pressure: 29.92 "Hg

Humidity: 64%

Dew point: 57 °F

Location of MadabaLocation

Historic Weather in Madaba — Graph

°F

Madaba temperature yesterday

Maximum temperature yesterday: 90 °F (at 3:00 PM)
Minimum temperature yesterday: 59 °F (at 6:00 AM)
Average temperature yesterday: 76 °F

Past Weeks' High & Low Weather Summary

 TemperatureHumidityPressure
High100 °F (Aug 14, 3:00 PM)88% (Aug 19, 7:00 AM)30.07 "Hg (Aug 19, 7:00 AM)
Low55 °F (Aug 17, 6:00 AM)11% (Aug 21, 2:00 PM)29.71 "Hg (Aug 17, 5:00 PM)
Average79 °F45%29.88 "Hg
* Reported Aug 14 8:00 AM — Aug 29 8:00 AM, Madaba, Weather by CustomWeather, © 2014

Note: Actual official high and low records may vary slightly from our data, if they occured in-between our weather recording intervals... More about our weather records

Advertising

Madaba weather history for previous 24 hours

 ConditionsComfort  
Time TempWeatherWind HumidityBarometerVisibility
8:00 AM
Aug 29
70 °FClear.6 mph64%29.92 "Hg4 mi
7:00 AM64 °FClear.6 mph83%29.89 "Hg4 mi
6:00 AM64 °FClear.6 mph83%29.89 "Hg10 mi
4:00 AM68 °FClear.6 mph78%29.89 "Hg10 mi
3:00 AM66 °FClear.5 mph78%29.89 "Hg10 mi
1:00 AM72 °FClear.6 mph73%29.89 "Hg10 mi
10:00 PM
Aug 28
77 °FClear.8 mph61%29.89 "Hg5 mi
9:00 PM81 °FClear.8 mph45%29.86 "Hg5 mi
8:00 PM82 °FClear.12 mph45%29.86 "Hg5 mi
6:00 PM88 °FClear.14 mph24%29.83 "Hg4 mi
5:00 PM88 °FClear.9 mph24%29.83 "Hg5 mi
4:00 PM90 °FClear.9 mph21%29.83 "Hg5 mi
3:00 PM90 °FClear.12 mph22%29.83 "Hg4 mi
2:00 PM88 °FClear.9 mph25%29.86 "Hg4 mi
1:00 PM88 °FClear.12 mph25%29.86 "Hg4 mi
12:00 PM86 °FClear.12 mph27%29.86 "Hg4 mi
11:00 AM81 °FClear.No wind39%29.89 "Hg4 mi
10:00 AM77 °FClear.No wind51%29.89 "Hg4 mi
9:00 AM72 °FClear.No wind50%29.86 "Hg4 mi
Weather by CustomWeather, © 2014

See weather overviewHow to use our weather pages